Location: Greenwich
(51.4790°N, 0.0090°E)
Time: 06:52:17
(UTC+01:00)

X-37B - Visible Passes

Search period start: 18 September 2021 00:00
Search period end: 28 September 2021 00:00
Orbit: 381 x 393 km, 45.0° (Epoch: 29 August)

Date Brightness Start Highest point End Pass type
(mag) Time Alt. Az. Time Alt. Az. Time Alt. Az.
22 Sep 3.3 05:57:09 10° S 05:58:39 13° SSE 06:00:10 10° SE visible
24 Sep 2.8 05:36:10 10° SSW 05:38:15 17° SSE 05:40:25 10° ESE visible
25 Sep 3.2 04:40:29 13° SSE 04:40:29 13° SSE 04:41:38 10° SE visible
25 Sep 2.3 06:13:28 10° SW 06:16:05 24° S 06:18:44 10° ESE visible
26 Sep 2.3 05:17:04 19° S 05:17:53 21° SSE 05:20:22 10° ESE visible
27 Sep 3.4 04:21:20 12° SE 04:21:20 12° SE 04:21:53 10° ESE visible
27 Sep 2.1 05:53:37 13° SW 05:55:46 25° S 05:58:27 10° ESE visible
